GFSCGP_sfc_thetae_060.txt.gz
Theta_e
299 294 290 292 293 295 295 294 292 293 298 294 294 295 297 303 309 310 311 311 313 314 317 317 319 319 317 317 318 318 316 315 316 315 312 310 309 309 309 309 309 309 308 305
295 292 296 297 298 296 295 294 292 295 296 295 293 293 296 301 306 310 311 311 313 315 315 316 317 316 315 317 319 317 317 315 317 317 312 312 309 308 307 307 308 308 306 303
291 295 300 298 296 294 293 292 291 292 294 294 292 290 294 298 303 306 311 314 313 314 314 315 316 315 315 316 318 318 318 316 317 316 313 308 307 307 305 305 305 306 307 304
293 297 297 295 294 295 289 296 296 294 290 285 290 283 289 293 299 303 306 310 312 311 313 314 314 312 313 315 317 318 318 316 315 316 312 309 308 305 305 305 305 305 305 303
292 294 294 293 294 297 293 297 295 295 291 287 287 284 288 293 296 300 303 305 310 310 310 310 313 313 313 315 316 317 317 316 316 316 314 311 308 308 307 305 305 304 302 302
293 298 297 296 298 298 298 295 292 291 289 283 287 286 286 289 294 299 302 302 305 307 307 309 310 311 311 314 315 316 316 316 317 317 315 313 312 308 307 304 304 302 300 299
292 294 296 299 294 296 294 289 282 281 280 281 289 287 289 292 296 298 301 303 303 304 303 305 308 310 313 315 316 317 317 316 317 317 316 314 313 309 306 304 304 300 297 296
287 285 294 297 295 292 292 290 283 279 278 281 289 285 290 297 299 300 299 300 303 301 303 305 309 312 314 316 317 318 318 319 318 318 317 316 313 308 305 305 305 300 298 297
286 287 296 299 299 296 292 288 291 285 284 280 284 289 293 296 297 300 298 300 300 300 303 307 310 314 315 316 317 319 319 319 318 319 317 313 310 307 304 302 301 299 298 298
292 285 294 298 299 298 294 296 287 285 280 279 281 283 285 291 294 298 299 299 301 302 305 308 312 315 317 318 319 320 319 319 318 316 313 312 308 304 303 302 299 298 299 299
293 289 288 295 293 292 291 290 289 289 284 280 278 282 291 292 295 295 296 300 300 305 306 309 312 315 316 317 318 318 318 317 311 311 308 303 301 300 301 300 299 300 299 298
295 289 284 290 294 296 293 292 290 283 283 283 280 282 293 293 294 297 298 301 302 306 308 310 311 313 314 315 315 315 314 313 309 302 300 300 300 300 300 299 300 300 299 299
295 288 282 285 289 294 292 293 292 289 285 283 278 283 293 293 294 296 297 299 303 305 307 309 310 312 314 315 312 311 309 306 303 302 301 301 301 300 299 299 299 300 299 298
298 291 286 283 286 290 289 291 292 290 282 284 283 286 291 293 293 294 295 297 297 304 306 306 307 308 310 309 306 304 302 304 304 303 303 302 301 301 299 300 299 298 297 296
295 288 289 289 290 291 290 290 289 288 288 285 287 286 291 293 292 293 293 294 296 298 304 304 304 305 306 305 302 301 301 302 303 303 302 302 302 301 299 296 296 296 296 295
294 288 288 287 289 290 288 291 290 290 289 288 288 288 293 291 292 293 294 296 299 299 301 303 302 304 304 302 302 302 302 301 302 301 300 300 299 297 296 296 295 294 293 293
291 289 285 284 286 287 283 288 290 291 291 290 286 290 292 291 292 291 294 296 298 298 300 301 301 301 300 299 301 299 298 298 297 297 297 297 296 294 294 293 294 294 294 294
290 287 284 281 281 275 289 292 292 291 290 290 289 290 291 292 293 292 292 294 293 293 293 294 294 293 292 293 293 294 295 294 295 294 293 293 293 294 295 295 295 294 292 290
294 287 283 281 280 284 288 290 289 288 287 291 290 291 293 294 293 292 290 289 288 288 288 288 289 290 290 290 291 292 292 292 293 294 295 295 295 294 294 294 293 289 287 286
292 290 286 279 278 277 287 292 292 291 283 292 292 292 293 292 285 289 288 288 287 287 287 287 287 288 288 288 290 291 291 292 292 294 295 295 295 295 292 289 288 286 284 284
284 283 282 276 277 283 292 292 293 283 286 292 294 295 293 290 289 288 287 286 286 286 287 287 287 287 286 288 289 289 291 291 294 294 294 292 290 289 287 285 284 284 283 282
288 285 281 279 277 281 293 292 288 290 291 293 293 294 292 288 287 286 286 285 286 285 286 287 287 287 288 288 289 287 289 290 290 289 288 287 286 286 285 283 283 283 282 281
287 291 287 289 288 294 294 292 293 294 294 295 295 295 291 288 287 286 285 285 285 285 286 288 287 287 287 287 288 288 287 287 287 285 285 284 284 283 283 282 282 281 281 279
293 294 289 290 292 294 295 295 295 295 295 296 296 292 291 288 287 286 285 285 285 286 286 287 287 285 283 286 286 285 285 285 284 283 283 282 282 282 282 282 282 280 278 279
294 295 291 290 293 295 296 294 293 292 293 293 292 291 289 288 286 286 285 286 286 286 287 286 284 284 284 285 284 284 283 283 282 281 281 281 280 280 280 280 280 281 280 280
295 293 290 291 296 295 294 292 293 292 291 291 290 288 288 288 286 286 286 286 286 284 285 284 284 284 283 281 280 281 282 280 279 279 279 278 278 278 278 277 278 281 282 283

GFSCGP_sfc_thetae_063.txt.gz
Theta_e
303 299 296 298 298 297 296 296 295 298 301 299 298 298 301 313 314 313 314 314 316 317 320 321 322 323 323 326 326 327 327 327 325 323 321 321 323 323 322 323 321 319 317 316
300 297 300 299 299 299 298 296 296 298 300 299 298 298 300 309 312 315 315 315 317 318 318 319 321 323 322 323 325 325 326 324 325 325 324 324 323 321 321 320 319 318 316 313
296 298 301 300 299 297 297 295 295 295 298 298 296 295 298 301 309 313 316 317 318 318 318 319 319 321 322 321 323 324 325 325 325 326 323 319 318 317 316 316 315 314 312 310
297 299 298 298 297 298 294 299 298 296 295 291 295 288 293 298 301 306 311 315 317 318 319 321 320 320 322 322 325 325 325 324 324 324 323 320 321 317 317 316 313 311 311 310
296 297 297 296 298 299 297 299 298 297 295 293 292 291 295 296 296 301 306 312 316 318 319 320 321 322 323 323 324 325 325 324 324 323 323 322 320 319 316 314 312 311 311 311
297 302 300 300 300 300 300 299 296 295 294 290 292 292 294 295 298 301 305 308 312 317 318 320 322 322 321 322 323 324 323 323 323 322 322 321 319 315 313 313 311 311 311 310
296 297 301 302 298 300 298 294 288 287 288 287 293 290 295 299 301 301 303 307 310 314 317 316 316 317 318 319 322 323 322 322 321 320 320 319 319 316 314 314 311 310 309 307
291 289 297 301 299 297 296 295 290 282 284 287 291 289 296 301 303 304 305 305 307 309 313 314 315 316 317 319 321 321 321 322 321 319 320 319 318 317 316 311 312 311 308 306
290 290 299 301 301 300 296 293 296 289 288 287 290 293 297 299 300 304 305 305 305 307 308 311 313 316 317 318 320 321 322 322 322 321 320 320 320 318 314 312 314 312 309 305
296 290 297 300 302 300 298 299 292 291 284 282 286 287 291 297 298 301 303 305 306 307 306 307 310 314 317 319 321 322 323 322 322 322 322 321 320 318 315 312 311 309 305 304
296 294 292 298 297 296 296 295 293 293 290 286 283 288 297 298 299 302 303 305 307 309 310 310 313 316 319 321 321 322 323 323 322 323 321 320 321 317 313 310 309 306 304 302
299 294 289 293 298 299 298 296 295 291 288 288 287 288 299 300 299 300 303 305 308 310 313 314 315 318 319 320 322 322 322 322 323 322 320 317 313 309 307 305 304 304 302 301
298 292 287 289 294 298 296 296 295 293 291 288 288 290 298 299 300 301 301 304 305 309 312 314 316 317 319 321 321 320 319 319 317 313 310 307 305 304 304 303 303 304 301 300
300 293 291 287 290 294 293 294 294 295 289 290 289 293 297 300 298 301 301 302 303 305 310 314 315 316 317 318 318 318 315 312 308 307 307 306 305 304 303 302 301 300 301 298
300 292 292 292 292 294 294 294 293 293 294 291 294 291 296 299 300 300 298 299 300 303 304 310 311 314 315 313 310 309 309 308 308 306 305 304 304 304 301 299 299 300 298 298
297 293 292 291 293 292 292 293 293 294 293 293 292 292 298 299 298 298 298 301 303 304 306 307 308 310 309 307 307 306 306 307 307 306 303 302 301 300 297 298 297 296 296 295
295 292 290 288 290 291 287 292 293 294 295 295 291 297 297 296 296 297 299 302 301 301 302 303 304 305 306 305 305 304 304 304 304 303 301 299 298 296 295 294 295 295 297 296
293 292 289 287 285 282 294 295 296 295 296 296 294 295 296 297 296 296 296 300 298 298 298 298 299 299 300 301 301 301 301 300 298 296 294 294 295 296 296 297 297 296 296 296
297 291 287 286 286 289 291 293 294 293 294 297 296 295 296 297 297 294 292 294 294 294 294 294 296 296 297 298 299 298 297 295 295 295 295 296 296 296 297 296 296 296 294 293
293 293 292 284 284 283 292 295 296 297 289 297 296 296 296 296 295 297 292 291 291 292 293 293 293 294 294 295 297 296 295 295 295 295 295 297 296 296 295 294 293 293 292 291
288 287 287 283 287 289 294 296 297 289 293 297 298 298 298 296 296 294 291 290 291 291 291 292 293 292 292 295 296 295 295 294 296 296 293 292 292 291 291 291 291 290 290 290
290 288 286 285 285 285 296 293 292 298 296 298 298 299 298 292 290 290 289 289 289 290 290 291 291 291 293 294 294 292 291 291 290 290 290 290 290 289 289 289 290 289 289 288
290 294 291 292 293 299 297 300 299 298 299 298 299 299 294 291 289 289 288 288 289 290 290 291 290 289 290 291 291 289 289 289 289 289 288 287 287 286 286 286 285 285 285 284
294 297 293 294 297 297 298 300 299 299 299 300 300 297 295 291 289 288 288 288 289 289 289 289 288 287 286 288 287 288 288 288 287 285 285 284 284 283 283 283 283 282 282 282
296 297 294 294 296 297 299 299 299 297 297 296 296 296 294 291 289 288 288 288 289 289 288 288 287 286 285 285 284 284 284 285 283 283 282 281 281 281 281 281 281 281 282 282
298 296 293 293 299 299 301 301 298 296 296 295 293 291 292 291 289 288 288 289 288 287 287 287 286 283 281 282 281 282 282 282 282 280 280 279 279 279 279 279 279 280 280 281

GFSCGP_sfc_thetae_066.txt.gz
Theta_e
309 303 300 301 303 302 301 299 298 301 305 303 303 303 305 312 316 315 318 318 318 319 322 324 325 329 326 327 328 329 330 333 334 332 327 325 326 330 333 333 334 332 330 328
304 301 305 305 304 302 301 299 299 302 304 303 303 302 304 308 314 316 317 318 319 320 322 321 324 326 328 328 330 330 331 333 334 331 328 326 327 329 331 332 331 330 327 325
301 302 305 304 303 301 301 299 299 298 303 304 302 300 302 306 313 317 318 319 321 321 321 323 322 325 326 326 328 330 332 333 333 331 328 328 330 330 329 328 328 328 324 324
302 306 302 302 300 302 298 303 301 300 299 295 301 293 299 303 306 311 315 319 320 321 323 323 324 324 326 327 328 331 332 332 333 332 328 326 325 324 327 328 328 322 322 319
300 301 301 300 301 304 299 303 302 301 300 299 298 295 299 303 302 305 311 316 320 322 323 323 324 325 327 328 329 329 330 332 333 333 332 329 327 328 330 328 326 323 319 317
303 306 305 303 304 305 305 303 301 302 300 293 296 296 298 300 302 305 308 311 316 321 323 324 325 326 327 331 331 331 329 329 332 333 333 331 330 329 326 325 322 317 317 313
300 301 305 305 302 304 303 300 293 291 291 291 297 295 297 303 305 307 308 311 314 317 323 324 324 326 326 328 330 330 330 328 331 331 331 331 331 330 326 324 321 318 315 314
294 292 301 305 303 300 301 301 294 285 287 291 296 291 298 305 307 309 311 313 313 315 318 323 325 326 327 327 329 329 329 328 329 328 330 330 328 326 325 323 321 316 313 317
295 294 302 304 305 305 300 297 301 294 294 293 295 297 303 304 305 307 307 310 312 313 317 319 323 326 327 328 327 329 329 329 330 328 329 327 326 322 322 323 320 314 315 316
300 294 300 304 306 304 303 304 295 297 286 285 292 293 295 299 301 304 305 308 312 315 314 316 318 322 325 327 328 330 329 328 329 329 327 327 326 326 324 322 318 314 317 317
302 299 297 302 300 299 300 299 299 299 296 289 287 292 302 301 303 305 307 309 311 314 316 316 317 318 321 324 326 327 327 327 327 328 328 326 324 324 323 321 317 315 315 314
303 300 294 296 303 304 304 301 301 294 292 295 294 293 305 306 307 306 308 310 312 314 316 319 319 320 321 322 324 325 326 326 327 328 327 323 322 321 314 312 310 310 307 305
303 297 292 293 297 302 299 301 301 300 298 294 292 293 304 306 306 308 308 309 311 313 316 319 321 321 323 324 325 325 327 326 327 324 320 313 310 308 306 305 304 303 301 300
304 299 295 291 294 298 296 298 300 299 294 294 294 296 301 304 305 307 308 309 310 311 313 318 320 322 324 325 325 324 320 319 316 314 310 307 306 305 304 304 303 301 302 300
304 296 298 298 298 298 297 297 298 297 297 294 297 297 301 304 306 308 307 306 306 308 309 314 319 322 323 323 323 323 317 311 311 308 307 306 306 305 303 302 301 301 299 299
304 296 298 295 298 297 295 298 298 299 299 299 299 298 305 307 307 305 305 305 307 309 311 313 316 319 318 317 317 316 315 311 310 307 305 304 303 303 303 300 299 300 299 297
301 298 296 292 296 296 291 296 298 300 301 301 297 301 305 305 305 305 305 307 307 309 310 312 314 315 314 314 314 313 312 311 308 305 304 304 304 301 299 297 295 296 296 297
300 299 298 293 291 286 297 301 303 301 302 303 303 304 305 305 305 305 305 308 307 307 307 308 310 310 311 312 311 310 310 309 307 305 304 303 300 297 297 297 297 298 299 299
304 300 295 292 291 295 297 296 299 299 299 305 303 305 305 304 303 302 303 307 307 306 306 307 308 308 309 308 308 306 304 302 301 300 298 298 298 297 297 297 297 299 300 299
299 300 298 292 289 287 297 302 305 303 294 305 305 304 304 302 299 304 302 302 302 303 303 304 305 306 306 306 305 303 301 300 298 298 298 299 300 299 298 298 297 298 298 295
294 294 293 293 293 296 301 300 303 293 297 306 306 306 305 302 304 304 301 300 301 301 301 303 303 303 303 304 303 301 301 299 300 300 297 296 296 296 295 295 295 296 295 294
294 293 292 293 291 289 300 298 297 305 307 307 307 307 306 305 301 299 299 298 298 298 299 300 300 300 302 303 302 299 298 298 297 295 293 294 294 293 293 294 294 293 292 290
292 298 298 297 298 305 304 306 307 307 308 306 307 307 308 300 298 298 297 297 298 298 298 299 298 297 298 299 298 295 295 295 294 293 292 292 291 290 289 289 288 288 288 287
298 301 299 298 303 303 305 307 306 306 306 306 307 307 305 301 299 298 297 297 297 297 296 296 295 294 293 295 294 294 293 293 292 290 289 289 286 287 286 287 286 286 286 285
301 300 299 300 304 302 303 307 308 306 306 305 306 306 303 301 298 297 297 296 296 295 295 295 294 292 290 290 289 290 290 290 288 287 285 285 285 284 285 285 285 284 285 283
302 301 298 298 307 305 307 307 310 307 305 304 303 302 302 300 298 297 296 296 295 293 294 292 291 289 288 286 285 286 287 287 286 284 284 283 284 284 284 284 284 280 280 279

GFSCGP_sfc_thetae_069.txt.gz
Theta_e
309 304 301 304 306 304 302 301 300 303 306 303 302 305 306 313 315 314 316 317 318 318 320 323 323 324 321 323 322 325 328 331 332 330 327 324 322 324 327 332 333 334 333 332
306 301 307 307 304 302 302 300 300 304 305 304 303 302 305 311 314 315 316 317 316 319 319 321 324 323 324 324 327 327 328 330 331 329 327 325 324 325 327 334 333 334 332 331
302 305 308 305 303 301 302 301 301 300 304 305 303 300 303 308 313 315 316 318 318 318 319 321 322 325 324 325 327 327 328 329 331 331 328 326 326 326 326 330 330 331 331 331
303 307 305 304 302 304 299 305 303 302 300 293 304 293 301 305 307 312 314 317 318 319 320 322 321 323 326 328 330 330 330 330 332 332 329 326 322 322 325 329 329 328 330 329
300 303 303 301 302 305 301 305 303 303 301 300 299 295 299 304 302 307 313 316 318 320 321 321 323 323 325 328 329 331 330 331 331 333 331 327 326 326 328 330 329 329 327 326
303 308 306 305 306 306 306 303 304 304 302 294 298 297 297 300 302 306 310 314 317 319 321 322 323 325 325 331 331 330 330 330 332 333 333 331 328 328 326 330 327 327 325 323
301 302 306 307 303 306 305 301 294 292 292 292 300 296 299 304 306 307 308 312 315 318 321 322 321 322 324 327 329 330 329 328 331 332 333 333 332 331 330 329 327 325 322 320
295 293 302 306 304 302 302 302 295 287 289 292 298 292 298 306 307 308 310 312 315 317 319 322 324 324 324 325 328 330 329 328 329 331 333 334 334 332 333 330 328 325 322 322
296 296 305 306 306 306 302 299 304 297 297 293 296 300 304 305 305 307 307 309 312 315 318 319 323 325 327 327 329 333 330 330 330 332 334 333 334 332 331 330 328 325 323 320
301 295 302 304 306 306 304 307 297 298 288 287 293 295 297 301 303 305 306 308 311 316 316 319 321 324 327 329 330 333 332 329 330 331 332 332 332 331 329 325 325 323 321 317
304 300 299 303 300 299 300 300 301 301 297 291 289 294 304 303 304 304 307 308 310 312 317 318 319 323 326 329 330 331 331 330 329 330 332 331 330 328 327 324 324 322 318 315
304 301 295 298 304 305 305 301 302 295 293 297 295 295 307 307 307 308 308 309 311 313 315 319 320 320 321 324 327 329 330 330 330 330 330 329 327 325 323 321 315 311 304 305
304 298 293 295 299 303 301 303 303 303 301 295 294 295 307 307 307 308 308 310 311 313 314 317 321 321 322 323 325 326 328 328 329 329 328 321 315 312 309 306 304 303 302 302
305 300 296 292 295 300 297 299 302 301 297 296 296 297 302 304 305 308 309 311 311 312 314 316 319 321 324 325 326 326 327 328 325 320 317 310 308 306 305 303 303 303 304 302
304 297 298 299 300 300 299 298 299 298 299 296 298 298 301 304 305 307 310 311 310 310 311 314 318 321 324 326 327 322 317 315 313 310 308 306 306 305 305 302 302 301 301 301
305 297 299 296 299 299 297 298 299 299 299 299 299 298 306 308 308 307 308 309 308 310 312 313 316 322 323 324 324 316 313 311 310 308 306 306 304 303 302 302 301 301 300 300
302 300 297 293 298 298 294 297 298 299 301 301 297 302 306 305 306 307 308 309 309 312 313 314 318 321 321 320 318 313 311 309 306 305 305 305 305 302 301 300 299 297 297 297
301 300 299 295 293 287 298 304 303 301 302 304 303 304 305 306 308 309 311 310 311 312 313 315 317 317 318 318 316 313 311 308 307 306 305 304 302 299 299 298 297 297 299 301
304 301 298 293 293 295 298 300 300 299 299 304 304 305 306 308 308 307 309 311 312 312 313 314 315 315 315 314 314 313 311 309 307 305 303 302 302 299 298 297 298 300 300 302
302 303 299 296 289 287 297 302 306 306 296 306 306 306 306 306 301 303 308 311 310 310 311 311 312 312 311 311 310 308 307 306 303 302 301 301 300 300 301 301 302 300 299 297
295 296 294 294 293 296 302 305 307 295 297 307 308 308 307 305 306 309 308 308 309 309 309 310 310 309 309 309 308 305 304 302 302 302 301 300 300 301 300 298 297 296 296 295
295 293 294 296 293 290 306 302 298 306 310 310 310 310 309 310 308 307 307 306 306 306 306 308 307 307 308 308 306 304 302 303 302 300 298 298 297 295 296 296 295 294 294 292
292 300 297 298 299 308 307 307 309 310 310 311 311 311 311 309 306 305 304 304 304 304 305 306 305 305 306 306 305 302 300 299 299 298 296 295 294 293 293 292 291 290 290 289
299 302 299 300 303 306 308 309 310 311 310 311 311 311 311 309 306 304 303 303 303 303 303 304 303 302 301 301 300 299 298 298 296 294 293 292 291 289 289 289 289 289 289 288
299 301 299 299 302 304 307 308 311 311 311 310 310 310 310 308 305 304 303 302 302 301 301 301 300 299 297 297 296 296 296 295 292 291 289 289 288 288 287 287 286 286 285 283
302 301 300 298 304 306 306 309 310 311 311 311 309 308 309 308 305 304 303 302 301 300 300 298 297 296 294 293 292 293 293 292 289 287 287 287 287 286 286 286 285 281 281 280

GFSCGP_sfc_thetae_075.txt.gz
Theta_e
302 295 293 294 298 299 299 298 293 296 301 299 298 298 301 305 306 306 307 308 311 311 315 316 315 315 315 314 315 313 312 313 314 314 314 315 317 318 319 321 323 325 328 327
299 294 300 302 301 300 300 295 293 297 303 300 295 295 299 302 306 308 309 309 311 312 314 315 314 313 313 314 314 314 313 314 315 316 317 317 318 319 319 321 325 326 326 327
296 299 303 301 299 299 297 295 295 296 300 299 296 294 297 302 306 309 311 312 313 312 313 314 314 313 314 313 313 313 314 315 317 319 320 320 317 317 316 317 321 325 327 327
297 302 301 300 299 300 294 301 301 299 294 288 297 286 296 301 303 307 310 310 311 313 314 314 315 313 313 314 315 314 315 316 318 323 322 320 316 315 317 319 323 325 326 327
295 298 299 298 300 302 297 303 301 299 294 292 293 292 293 299 300 303 309 310 312 313 314 312 313 314 313 314 314 315 316 318 324 324 323 321 316 316 316 322 324 325 326 326
297 302 301 300 303 303 304 300 298 297 293 286 294 293 291 294 299 303 308 311 312 312 315 315 315 315 313 315 316 317 318 321 324 324 324 321 316 316 315 318 322 323 324 325
296 297 301 303 298 301 299 294 286 284 283 284 297 294 294 300 302 303 306 311 311 313 314 315 315 315 315 315 315 317 319 321 324 324 325 321 319 317 316 319 322 322 320 319
289 288 297 302 299 297 295 295 287 282 282 288 297 291 293 303 304 303 304 311 313 313 314 315 316 317 317 317 318 319 321 321 322 323 323 323 321 320 320 321 323 322 322 321
289 290 300 301 302 301 297 292 299 293 293 288 291 295 301 302 300 302 301 303 308 314 314 314 317 318 318 320 319 320 323 323 323 322 324 322 324 322 320 320 322 322 320 319
296 291 299 300 301 301 298 301 291 292 284 283 289 289 291 297 300 300 299 301 304 307 310 315 317 318 318 320 321 322 323 324 324 323 324 325 324 324 324 323 321 320 320 318
298 294 294 299 296 295 296 294 296 296 292 283 281 286 298 299 300 299 300 303 304 306 307 308 310 317 320 319 320 322 323 323 323 324 323 325 326 326 325 321 320 318 316 315
297 296 290 293 300 302 300 296 296 289 289 290 286 287 302 301 301 301 301 303 304 308 308 309 310 312 318 319 321 322 323 325 325 325 323 324 324 322 321 320 320 317 313 311
298 293 287 290 295 299 296 297 298 297 295 289 283 288 304 303 300 302 301 302 303 305 307 309 310 311 312 316 320 322 324 323 320 325 324 320 316 314 314 312 311 310 308 307
301 296 291 286 291 297 293 296 297 295 287 289 290 293 298 301 300 301 300 302 303 304 306 309 310 311 312 318 319 318 317 318 316 314 312 311 310 309 307 306 307 306 305 302
299 291 294 295 297 298 296 296 295 293 295 292 294 295 299 299 299 301 303 304 305 305 305 305 309 311 317 316 314 312 310 309 309 308 306 304 305 305 304 303 302 302 301 301
298 291 294 292 296 296 295 296 296 296 297 295 295 296 302 301 300 301 303 305 305 305 308 308 311 318 317 314 310 309 307 307 307 305 304 304 304 302 301 301 301 301 300 299
296 293 291 287 294 294 286 292 296 296 298 296 292 296 299 298 300 299 302 302 303 307 308 310 318 318 314 310 308 306 306 306 304 303 303 303 302 301 301 301 300 298 297 297
295 295 292 286 288 282 293 299 298 297 299 298 298 298 299 299 299 302 303 304 307 308 309 314 314 312 310 307 306 305 305 305 304 303 303 302 301 300 300 299 298 297 297 297
298 295 288 286 286 291 295 297 296 295 294 300 298 299 300 301 302 300 305 305 306 308 309 312 312 310 308 306 306 305 304 304 304 302 301 300 299 298 297 296 296 295 294 295
298 297 290 287 283 281 293 300 302 301 288 300 300 300 300 301 293 297 303 308 308 309 310 311 311 309 307 306 306 304 304 303 301 301 300 300 299 298 296 295 294 296 298 298
286 288 286 283 284 289 299 302 302 288 288 302 303 301 300 298 299 302 306 306 307 308 309 309 310 308 307 307 306 303 303 301 302 301 300 299 298 297 296 297 297 295 291 289
288 286 286 287 285 284 302 300 294 297 301 304 303 301 302 303 302 304 305 305 306 306 307 306 304 303 304 306 304 301 299 302 301 299 297 297 298 299 296 292 290 290 288 284
288 293 290 293 289 300 304 302 305 304 304 304 303 306 306 303 303 304 303 303 303 304 304 304 302 302 302 302 302 299 298 300 300 299 296 292 294 293 292 288 286 285 284 282
294 297 292 292 296 298 303 304 305 306 305 307 307 305 306 303 303 302 302 302 302 302 302 302 301 300 300 300 300 299 299 298 295 292 290 288 286 285 285 285 286 283 281 280
294 296 294 293 296 298 302 302 303 304 306 307 308 306 305 305 302 302 301 300 300 300 300 301 299 295 294 296 296 297 296 293 290 287 286 285 286 283 281 282 283 281 280 281
296 294 292 289 298 298 300 303 306 305 306 307 307 305 305 305 303 302 300 300 299 298 299 295 293 292 290 286 285 289 291 289 286 285 284 284 283 283 283 281 280 281 281 281

GFSCGP_sfc_thetae_078.txt.gz
Theta_e
300 293 291 293 295 296 295 294 293 296 299 299 297 296 298 304 305 304 305 307 307 309 311 313 314 315 314 315 314 312 312 313 314 313 312 311 311 313 313 314 317 320 321 322
297 293 297 299 298 297 296 294 293 297 300 298 295 293 296 304 305 306 306 307 307 309 311 312 312 312 312 313 312 311 310 311 312 312 312 311 312 315 315 315 317 320 322 323
293 297 301 299 297 296 296 293 294 293 297 296 294 292 295 301 305 308 309 309 310 310 310 311 312 311 312 312 312 311 311 311 312 313 312 314 314 314 314 315 316 320 323 325
293 299 299 298 296 297 292 299 298 297 293 287 294 285 293 297 302 306 308 308 310 311 313 312 311 310 311 311 313 313 313 311 313 314 313 313 313 312 315 315 317 321 323 324
292 296 296 295 297 300 295 301 299 298 293 289 290 288 292 297 298 303 307 309 310 312 312 312 312 312 312 313 312 312 313 313 313 315 315 315 314 316 316 315 316 321 323 324
294 299 298 299 301 301 302 298 296 295 292 285 291 290 289 292 297 303 307 309 310 311 313 313 314 313 312 314 313 312 312 313 314 315 317 318 317 317 314 314 316 319 322 323
292 294 297 299 296 298 298 292 284 283 282 283 294 291 293 298 299 304 307 308 310 312 312 313 313 312 312 312 312 312 312 312 314 317 319 320 320 318 316 314 317 318 320 321
287 285 294 299 296 295 294 293 285 281 281 285 295 289 292 300 302 303 307 311 311 311 312 311 313 313 310 311 312 312 312 313 315 316 321 322 322 320 318 316 319 320 321 322
288 288 297 299 300 299 294 290 297 290 290 285 289 293 298 298 298 299 302 310 310 311 312 313 313 313 313 310 311 312 314 315 317 318 321 323 322 320 319 318 318 322 322 322
293 287 296 298 299 299 297 299 290 290 283 282 287 288 290 295 296 298 299 305 309 310 312 313 315 315 314 315 314 315 315 315 318 320 321 322 322 322 320 318 318 320 321 319
296 291 291 296 293 292 294 293 294 294 291 283 281 286 295 297 299 297 298 301 305 310 312 313 314 316 317 317 317 316 317 318 320 321 322 322 321 321 321 318 318 317 317 317
296 293 288 291 297 298 298 296 295 287 287 288 285 288 298 299 299 298 298 302 302 305 309 312 315 315 317 318 318 319 319 320 322 323 322 322 323 321 320 319 318 318 316 317
295 291 284 288 293 296 294 295 296 296 293 288 283 287 301 299 299 300 298 300 302 304 305 305 307 310 315 317 317 319 320 321 322 322 320 318 317 319 321 321 318 319 317 312
300 293 290 285 289 293 292 295 297 295 287 288 288 291 297 300 300 301 299 299 301 302 305 306 306 309 312 316 317 317 319 321 320 316 315 312 313 313 313 313 312 312 311 307
298 289 292 293 295 296 294 294 295 294 293 289 292 292 296 299 300 301 301 301 302 302 303 305 307 309 314 312 312 312 312 311 311 310 309 306 307 307 307 306 306 305 304 303
297 288 291 289 295 295 293 295 296 295 294 293 295 293 301 302 300 299 301 302 301 302 304 305 306 315 314 311 308 309 309 308 308 306 304 304 304 304 303 303 303 301 301 300
293 291 288 284 293 293 286 292 296 295 296 295 290 294 299 299 298 298 299 301 302 303 305 309 312 315 312 309 308 307 307 307 306 305 305 305 304 302 301 301 301 300 299 299
291 290 288 283 287 281 291 298 299 297 297 297 296 296 297 298 299 299 300 301 302 303 308 313 313 308 306 307 307 306 306 305 304 304 304 303 302 300 300 300 298 298 298 298
296 292 284 283 284 289 293 296 295 295 293 298 297 298 299 299 298 297 302 304 304 306 311 311 309 306 304 304 305 305 304 305 304 303 302 301 300 299 298 297 297 297 297 297
297 295 288 283 282 278 290 298 301 300 288 299 299 299 299 298 291 295 302 305 307 309 311 309 307 306 305 304 304 303 303 303 301 301 300 300 300 299 298 297 296 297 297 296
286 287 284 282 283 287 297 300 301 289 288 299 301 300 299 296 297 300 304 306 308 310 310 308 307 305 304 304 304 301 302 301 301 301 300 299 299 298 297 297 297 295 289 287
286 285 285 285 283 282 300 300 293 296 299 302 303 302 302 300 300 302 304 305 306 306 307 307 305 303 303 303 302 300 300 301 300 299 298 298 298 297 297 294 292 289 286 284
285 292 288 289 288 299 300 301 303 302 302 303 304 304 304 301 302 304 304 304 304 304 302 304 303 301 301 301 301 297 297 298 299 298 297 295 294 293 291 290 288 287 285 282
294 297 292 292 296 298 299 300 303 303 303 305 305 304 303 301 302 301 301 301 301 302 300 302 301 298 298 301 300 298 297 298 294 290 288 287 286 286 286 286 285 284 283 283
291 295 293 291 295 296 298 299 301 303 305 307 307 304 304 303 301 301 299 300 300 300 300 298 294 292 291 295 296 296 294 291 287 286 285 284 284 284 283 281 282 280 281 282
294 292 288 287 296 295 297 299 303 303 304 305 305 304 304 303 301 300 299 299 299 294 293 286 286 285 285 286 286 288 288 287 285 283 283 283 282 282 282 281 280 282 281 281

GFSCGP_sfc_thetae_081.txt.gz
Theta_e
298 293 291 293 293 294 293 291 289 294 298 295 295 296 297 302 303 303 305 305 305 306 311 314 315 315 315 315 314 315 314 314 314 313 312 314 316 313 314 316 319 321 321 320
294 292 296 297 296 295 293 291 291 294 297 296 294 294 295 301 303 304 305 305 305 305 308 313 312 314 314 314 313 313 313 313 314 314 313 315 315 315 315 314 317 317 318 320
291 295 300 297 295 294 293 291 291 291 295 295 293 291 293 300 303 305 306 308 307 307 308 309 311 311 312 311 311 311 313 313 314 314 312 313 313 314 313 312 311 315 318 320
291 297 297 295 294 295 290 296 296 294 291 287 292 284 291 295 300 304 306 306 306 308 310 310 309 309 310 311 313 310 310 312 314 313 310 309 310 309 307 308 311 313 318 319
290 292 293 293 296 297 294 298 296 295 292 288 289 287 289 295 296 300 305 307 307 309 310 309 310 310 311 312 312 311 310 310 311 312 311 310 309 308 309 311 312 312 315 318
292 297 296 296 298 299 300 296 294 293 290 283 289 288 287 290 295 301 305 307 308 309 311 311 311 311 310 311 311 311 310 310 310 311 311 310 310 311 312 311 312 313 314 317
291 292 295 298 294 297 296 290 283 281 281 282 291 289 291 295 298 302 305 307 309 310 311 311 310 310 310 309 310 311 310 310 311 311 312 312 312 313 313 313 313 314 315 318
286 284 292 295 295 292 292 291 284 280 280 283 292 287 292 299 300 302 307 309 310 309 311 312 312 311 311 311 310 311 311 310 311 311 312 313 314 315 316 315 315 315 316 317
286 286 295 296 297 297 292 288 295 287 287 283 288 292 297 297 297 299 302 306 307 309 310 312 313 313 311 311 311 311 311 310 311 312 312 313 314 316 317 318 317 316 317 318
292 286 294 296 297 298 295 297 288 288 281 281 285 286 289 294 295 296 299 305 307 309 310 312 312 314 313 312 312 312 312 311 311 312 313 314 317 320 320 320 317 315 318 319
293 290 290 294 291 291 292 291 291 292 288 282 280 284 294 296 297 296 297 305 307 309 310 312 312 313 314 314 311 312 312 312 312 313 315 316 317 320 321 321 318 316 318 318
296 291 286 289 295 296 295 293 294 286 285 286 285 287 297 298 298 298 297 300 307 310 311 312 313 314 313 313 313 311 312 313 314 317 317 317 319 320 320 320 316 318 318 317
296 289 282 286 291 295 292 293 294 293 291 286 283 286 298 298 298 298 296 297 300 305 308 310 311 312 314 314 314 314 314 314 315 317 317 319 319 320 318 319 318 318 318 318
299 292 288 283 286 291 289 293 294 294 285 286 289 291 295 297 298 300 299 298 298 301 303 306 309 311 313 315 316 315 315 316 317 317 317 318 318 318 319 318 318 318 318 318
296 287 290 291 292 294 293 292 293 291 291 288 290 292 297 298 298 299 301 299 299 300 302 303 305 306 308 310 312 315 316 317 317 317 314 314 311 311 311 311 310 309 310 309
294 287 290 288 291 293 292 294 294 293 293 293 292 293 299 299 299 299 300 299 300 301 301 304 305 306 311 311 310 309 308 309 309 311 307 306 306 307 306 306 305 305 304 304
287 288 285 283 291 292 286 291 294 294 294 293 289 294 299 298 298 299 299 299 299 300 301 302 305 308 311 308 309 310 308 309 307 306 305 305 305 304 303 303 302 300 299 300
288 286 287 281 284 280 290 297 297 295 296 297 296 297 298 298 300 300 299 299 300 300 301 304 308 307 307 308 307 307 307 306 306 305 305 305 304 302 302 300 299 298 299 298
294 288 284 283 282 286 290 294 294 293 293 299 296 297 297 298 297 296 299 298 300 301 303 309 306 307 309 307 307 306 306 305 304 303 303 303 302 300 299 298 298 298 298 297
293 293 286 285 282 277 287 295 300 299 288 299 299 298 298 298 292 295 300 302 302 306 309 306 304 305 305 305 306 305 304 304 302 301 301 301 300 299 298 298 298 298 297 296
286 286 284 285 284 285 293 298 301 287 288 300 300 300 298 296 298 299 301 303 305 309 307 306 305 304 303 304 305 303 303 301 302 301 300 299 300 299 298 297 297 294 291 288
284 283 283 285 283 280 297 299 292 295 299 299 301 301 299 298 300 300 302 304 307 306 306 305 303 302 303 302 302 301 300 300 300 299 298 297 297 297 296 293 291 289 288 285
285 288 286 289 287 296 298 299 303 303 300 302 302 304 304 300 300 302 303 304 305 305 305 305 303 301 301 301 301 297 297 299 298 297 293 291 291 291 292 290 288 286 286 284
290 295 290 290 294 296 299 301 301 304 302 303 305 304 302 299 301 300 302 302 301 301 302 302 301 299 297 298 298 297 296 294 291 288 287 287 286 285 285 285 285 284 284 283
290 294 292 291 294 296 297 298 300 301 304 304 306 304 303 303 302 302 300 299 299 297 296 295 293 293 294 295 294 293 290 289 286 285 285 284 283 282 280 280 280 280 282 283
292 291 289 288 296 294 295 298 300 300 302 304 304 303 305 304 300 299 297 297 293 289 288 287 286 285 285 286 286 287 287 287 285 283 282 282 282 281 281 280 280 282 281 282